Montrose, CO

7:41 PM MDT on May 26, 2018 (GMT -0600)
Montrose Regional

Weather History for KMTJ - April, 2013

Change the Weather History Date:

Saturday, April 27, 2013

  Actual Average Record
Temperature  
Mean Temperature 54 °F 52 °F  
Max Temperature 72 °F 66 °F 80 °F (2006)
Min Temperature 36 °F 38 °F 23 °F (2008)
Degree Days  
Heating Degree Days 11 13  
Month to date heating degree days 506 445  
Since 1 July heating degree days 5892 5901  
Cooling Degree Days 0 0  
Month to date cooling degree days 0 0  
Year to date cooling degree days 0 0  
Growing Degree Days 5 (Base 50)    
Moisture  
Dew Point 17 °F    
Average Humidity 29    
Maximum Humidity 49    
Minimum Humidity 9    
Precipitation  
Precipitation 0.00 in 0.03 in 0.01 in (2012)
Month to date precipitation 0.84 0.88  
Year to date precipitation 2.07 3.13  
Sea Level Pressure  
Sea Level Pressure 30.11 in    
Wind  
Wind Speed 7 mph (SE)    
Max Wind Speed 17 mph    
Max Gust Speed 21 mph    
Visibility 10 miles    
Events      
T = Trace of Precipitation, MM = Missing Value Source: NWS Daily Summary

Daily Weather History Graph

Daily Weather History Graph

Search for Another Location

Airport or City:

Astronomy

Apr. 27, 2013 Rise Set
Actual Time 6:18 AM MDT 7:59 PM MDT
Civil Twilight 5:50 AM MDT 8:28 PM MDT
Nautical Twilight 5:16 AM MDT 9:02 PM MDT
Astronomical Twilight 4:40 AM MDT 9:38 PM MDT
Moon 10:31 PM MDT 7:41 AM MDT
Length of Visible Light 14h 37m
Length of Day
13h 40m
Waning Gibbous, 95% of the Moon is Illuminated
Apr 27
Waning Gibbous
May 2
Last Quarter
May 9
New
May 17
First Quarter
May 24
Full

Hourly Weather History & Observations

Time (MDT) Temp. Windchill Dew Point Humidity Pressure Visibility Wind Dir Wind Speed Gust Speed Precip Events Conditions
12:53 AM 45.0 °F 40.1 °F 21.9 °F 40% 30.14 in 10.0 mi SE 9.2 mph - N/A   Clear
1:53 AM 44.1 °F 38.6 °F 21.0 °F 40% 30.14 in 10.0 mi SE 10.4 mph - N/A   Clear
2:53 AM 43.0 °F 37.7 °F 21.9 °F 43% 30.14 in 10.0 mi SE 9.2 mph - N/A   Clear
3:53 AM 44.1 °F 37.7 °F 21.0 °F 40% 30.14 in 10.0 mi SE 12.7 mph - N/A   Clear
4:53 AM 39.9 °F 33.4 °F 21.0 °F 47% 30.16 in 10.0 mi SE 10.4 mph - N/A   Clear
5:53 AM 39.0 °F 33.4 °F 21.9 °F 50% 30.17 in 10.0 mi SE 8.1 mph - N/A   Clear
6:53 AM 39.0 °F 32.3 °F 21.0 °F 49% 30.19 in 10.0 mi SSE 10.4 mph - N/A   Clear
7:53 AM 43.0 °F 41.3 °F 24.1 °F 47% 30.21 in 10.0 mi SSE 3.5 mph - N/A   Clear
8:53 AM 50.0 °F - 23.0 °F 35% 30.20 in 10.0 mi SSE 6.9 mph - N/A   Clear
9:53 AM 57.0 °F - 19.0 °F 23% 30.19 in 10.0 mi SSE 4.6 mph - N/A   Clear
10:53 AM 61.0 °F - 15.1 °F 17% 30.18 in 10.0 mi Calm Calm - N/A   Clear
11:53 AM 66.0 °F - 12.0 °F 12% 30.16 in 10.0 mi Variable 3.5 mph - N/A   Clear
12:53 PM 66.9 °F - 12.9 °F 12% 30.14 in 10.0 mi NNE 8.1 mph - N/A   Clear
1:53 PM 68.0 °F - 9.0 °F 10% 30.10 in 10.0 mi Variable 6.9 mph 16.1 mph N/A   Clear
2:53 PM 70.0 °F - 10.9 °F 10% 30.07 in 10.0 mi WNW 3.5 mph 16.1 mph N/A   Clear
3:53 PM 70.0 °F - 10.9 °F 10% 30.04 in 10.0 mi SW 4.6 mph - N/A   Clear
4:53 PM 71.1 °F - 10.9 °F 10% 30.03 in 10.0 mi WNW 8.1 mph - N/A   Clear
5:53 PM 70.0 °F - 12.0 °F 11% 30.02 in 10.0 mi NW 11.5 mph 16.1 mph N/A   Clear
6:53 PM 70.0 °F - 10.0 °F 10% 30.01 in 10.0 mi NNW 4.6 mph - N/A   Clear
7:53 PM 66.0 °F - 12.0 °F 12% 30.01 in 10.0 mi West 3.5 mph - N/A   Clear
8:53 PM 60.1 °F - 16.0 °F 18% 30.02 in 10.0 mi Calm Calm - N/A   Clear
9:53 PM 51.1 °F - 21.9 °F 32% 30.05 in 10.0 mi SE 8.1 mph - N/A   Clear
10:53 PM 51.1 °F - 23.0 °F 33% 30.04 in 10.0 mi SE 12.7 mph - N/A   Clear
11:53 PM 50.0 °F - 21.0 °F 32% 30.03 in 10.0 mi SE 9.2 mph - N/A   Clear